Regional Weather Roundup
Issued by NWS Pendleton, OR

Home | Current Version | Previous Version | Text Only | Print | Product List | Glossary On
Versions: 1 2 3 4 5 6 7 8 9 10 11 12 13 14 15 16 17 18 19 20 21 22 23 24 25 26 27 28 29 30 31 32 33 34 35 36 37 38 39 40 41 42 43 44 45 46 47 48 49 50
000
ASUS46 KPDT 292304
RWRPDT
PENDLETON REGIONAL WEATHER ROUNDUP
NATIONAL WEATHER SERVICE PENDLETON OREGON
400 PM PDT WED MAR 29 2017

NOTE: FAIR INDICATES FEW OR NO CLOUDS BELOW 12,000 FEET WITH NO
SIGNIFICANT WEATHER AND/OR OBSTRUCTIONS TO VISIBILITY.

# INDICATES UNOFFICIAL STATION AND DATA

WAZ520-300010-
EAST SLOPES OF WASHINGTON CASCADES

CITY            SKY/WX      TMP DP  RH  WIND    PRES   REMARKS
#CLE ELUM HS    N/A         46  40  79  CALM    29.80F
#CLE ELUM LAKE  N/A         39  39  100 E3      29.85F
#GLENWOOD       N/A         52  48  86  S10     29.90S
#MANASTASH CYN  N/A         50  42  74  CALM    29.80F
#NELSON 3SW     N/A         39  37  92  CALM    30.08F
#NILE           N/A         53  47  80  SW1     29.10F
#TEANAWAY 4NE   N/A         44  44  100 CALM    N/A
#TROUT LAKE 1NE N/A         50  45  83  W7      29.93F
#TROUT LAKE 1E  N/A         50  45  83  S1      29.93F
$$

WAZ521-300010-
SIMCOE HIGHLANDS

CITY            SKY/WX      TMP DP  RH  WIND    PRES   REMARKS
#BICKLETON HS   N/A         47  46  96  SW18    29.92R WCI 40
#CENTERVILLE 1SWN/A         52  46  80  W10     29.89S
#GOLDENDALE 1NE N/A         53  40  61  SW3     N/A
#GOLDENDALE 4W  N/A         54  30  40  W13     29.96S
#GOODNOE HILLS  N/A         57  46  67  SW18    29.80F
#LYLE 6NE       N/A         51  49  93  SW5     29.90F
#PITT 4SE       N/A         48  46  93  SW7     29.96F
$$

WAZ026-300010-
KITTITAS VALLEY

CITY            SKY/WX      TMP DP  RH  WIND    PRES   REMARKS
ELLENSBURG AP   MOCLDY      54  43  66  NW6     29.82F
#ELLENSBURG CWU N/A         50  43  77  NW3     29.78F
#ELLENSBURG 3NE N/A         49  44  83  CALM    27.91F
#ELLENSBURG 13S N/A         54  42  64  E3      N/A
#KITTITAS 4N    N/A         52  44  74  W1      29.84F
#KITTITAS 3S    N/A         49  44  83  CALM    29.83F
#THORP 6N       N/A         43  42  96  N7      29.88F
$$

WAZ027-300010-
YAKIMA VALLEY

CITY            SKY/WX      TMP DP  RH  WIND    PRES   REMARKS
SUNNYSIDE AP    CLOUDY      57  44  62  S15     29.86F
YAKIMA AIRPORT  CLOUDY      64  46  52  S8      29.80F
YAKIMA-VAGABOND MOSUNNY     59  46  62  S14     29.79F
#DONALD 2NE     N/A         59   3  10  S14     30.07S
#GRANDVIEW      N/A         57  44  62  SW8     29.89S
#MABTON         N/A         58  48  69  SW15    29.87S
#MOXEE 2E       N/A         57   0  10  S15     29.76F
#NACHES 2SW     N/A         57  48  72  SE2     29.82F
#TERRACE HTS    N/A         59  48  67  S2      29.79F
#TOPPENISH      N/A         59  46  62  SW12    29.76F
#WEST VALLEY    N/A         59  47  64  NW3     29.79F
#W YAKIMA       N/A         58  47  67  NE3     29.82F
#WHITE SWAN 5E  N/A         63  47  56  SW22G33 29.83S
#WILEY CITY 3W  N/A         61  42  50  W5      29.78F
$$

WAZ028-300010-
LOWER COLUMBIA BASIN...WASHINGTON

CITY            SKY/WX      TMP DP  RH  WIND    PRES   REMARKS
6HR MIN TEMP:   45; 6HR MAX TEMP:   52; 6HR PCP:  0.01;

PASCO           CLOUDY      57  47  69  S16     29.90F
PROSSER AWOS    N/A         59  45  60  SW24G35 29.90F
RICHLAND AWOS   MOCLDY      58  49  72  E7      29.89F
#BENTON CITY    N/A         56  48  74  W7      29.78S
#CONNELL 5N     N/A         54  49  83  S5      29.88S
#CONNELL 5NW    N/A         53  49  86  SW17    29.81R
#ELTOPIA 6NW    N/A         54  50  86  CALM    28.85S
#KAHLOTUS       N/A         53  47  80  W28G39  29.87F
#KENNEWICK 3S   N/A         54  48  80  SW2     29.91S
#PATERSON       N/A         55  49  80  CALM    29.90R
#SAGEMOOR 2W    N/A         54  48  80  S12     29.74F
#TOUCHET 2S     N/A         60  52  75  SW6     29.88F
#WEST PASCO     N/A         57  49  75  W1      29.89S
$$

WAZ029-300010-
FOOTHILLS OF THE BLUES...WASHINGTON

CITY            SKY/WX      TMP DP  RH  WIND    PRES   REMARKS
WALLA WALLA AP  CLOUDY      59  52  78  SW12    29.91S
#CLYDE 6NW      N/A         55  49  80  SW14    29.88F
#DAYTON SCHOOL  N/A         57  45  64  SW7     29.92S
#LOWDEN 2SE     N/A         60  54  81  SE1     29.87S
#PLEASANT VIEW 1N/A         53  50  89  S14     29.93R
#PRESCOTT       N/A         57  53  86  SW2     29.91R
#WHITMAN COLLEGEN/A         58  52  80  S7      29.95F
#WAITSBURG 5S   N/A         55  51  86  S10     30.00S
#WAITSBURG 8N   N/A         53  N/A N/A S14     29.92S
#WALLA WALLA 5E N/A         58  52  80  S15     N/A
#WHITMAN MISSIONN/A         58  53  83  CALM    29.91F
$$

WAZ030-300010-
BLUE MOUNTAINS...WASHINGTON

CITY            SKY/WX      TMP DP  RH  WIND    PRES   REMARKS
#DIXIE 5SE      N/A         51  46  83  S15G24  29.85S
$$

ORZ009-041-WAZ024-300010-
COLUMBIA RIVER GORGE

CITY            SKY/WX      TMP DP  RH  WIND    PRES   REMARKS
HOOD RIVER AP   CLOUDY      57  48  72  W7      29.93F
THE DALLES AP   MOCLDY      60  51  72  NE5     29.90F
#ARLINGTON AIRPON/A         57  49  75  W12     29.91F
#CELILO DOT     N/A         61  42  50  SW5     N/A
#LYLE           N/A         57  51  80  CALM    29.94F
#MOSIER 1S      N/A         57  43  59  CALM    29.91S
#MURDOCK        N/A         57  50  77  W15     29.87F
#RUFUS DOT      N/A         58  47  67  W13     N/A
#SMITHVILLE     N/A         58  52  80  NW13    29.86F

$$

ORZ510-300010-
NORTH CENTRAL OREGON

CITY            SKY/WX      TMP DP  RH  WIND    PRES   REMARKS
#ANTELOPE       N/A         52  41  66  SW17G26 29.83F
#CHENOWITH 1W   N/A         50  47  89  NW13    N/A
#COW CYN RST AREN/A         50  39  66  SW16    N/A
#DUFUR          N/A         58  47  67  S13     29.87F
#DUFUR 9E       N/A         53  43  69  SW30G39 29.96F
#GRASS VALLEY 1SN/A         54  43  66  SW16G28 30.07R
#KENT DOT       N/A         54  34  47  N16     N/A
#MORO SCHOOL    N/A         56  49  77  SW15    29.98F
#SHANIKO 5WSW   N/A         48  33  56  N22     N/A    WCI 41
#SHANIKO 4NW    N/A         48  39  71  SW7     29.96F
#TYGH VALLEY 2NEN/A         58  45  62  N15     29.92F
#WAPANITIA AIRPON/A         57  45  64  W9      29.97S
#WASCO DOT      N/A         57  45  64  S8      N/A
#WASCO 5NE      N/A         55  48  77  W6      29.91S
$$

ORZ511-300010-
CENTRAL OREGON

CITY            SKY/WX      TMP DP  RH  WIND    PRES   REMARKS
BEND AIRPORT    CLOUDY      50  37  61  SW18G26 30.03R
PRINEVILLE AP   LGT RAIN    48  46  93  CALM    30.03R
REDMOND AIRPORT CLOUDY      54  40  59  SW8     30.00F
#ASHWOOD SCHOOL N/A         53  41  64  S9G25   29.94F
#BEND 1SW       N/A         47  42  83  S3      N/A
#BEND-AWBREY    N/A         49  41  74  SW8     30.01R
#BEND-KIM LN    N/A         54  39  57  SW7     29.92S
#CULVER         N/A         53  40  61  S15G29  29.91F
#CULVER 8W      N/A         55  39  55  W5      29.99F
#POWELL BUTTE 3EN/A         49  47  93  SW1     N/A
#POWELL BUTTE   N/A         49  44  83  S10     29.98S
#PRINEVILLE     N/A         48  45  89  CALM    30.10R
#PRINEVILLE 3N  N/A         51  45  80  SE5     30.00S
#WARM SPRINGS   N/A         58  41  53  CALM    29.93F

$$


ORZ509-300010-
EAST SLOPES OF OREGON CASCADES

CITY            SKY/WX      TMP DP  RH  WIND    PRES   REMARKS
SISTERS AWOS    N/A         50  39  66  E3      29.98R
#BLUE BOX PASS  N/A         42  N/A N/A S3      N/A
#CAMP SHERMAN   N/A         48  43  83  N1      30.06F
#LA PINE DOT    N/A         43  38  82  SW8     N/A
#LA PINE 4NW    N/A         42  38  86  CALM    30.10R
#LAVA BUTTE DOT N/A         42  39  89  S2      N/A
#SISTERS 3N     N/A         50  38  63  N8      30.11S
#SUNRIVER       N/A         44  41  89  SW3     30.06R
#TUMALO 3W      N/A         53  38  57  E3      29.86S
#WANOGA BUTTE D N/A         35  35  100 W10     N/A

$$

ORZ044-300010-
LOWER COLUMBIA BASIN...OREGON

CITY            SKY/WX      TMP DP  RH  WIND    PRES   REMARKS
HERMISTON       CLOUDY      57  50  77  CALM    29.92R
#BOARDMAN SCHOOLN/A         57  49  75  CALM    29.90S
#BOARDMAN 8SW   N/A         60  51  72  W6      29.90R
#ECHO 8SW       N/A         58  51  77  CALM    29.92F
#I-84 EX 198 DOTN/A         55  48  77  N10     N/A
#IONE SCHOOL    N/A         62  42  48  SW20G28 29.93F
#UMATILLA       N/A         57  47  69  CALM    29.85S
$$

ORZ507-300010-
NORTHERN FOOTHILLS OF THE BLUES

CITY            SKY/WX      TMP DP  RH  WIND    PRES   REMARKS
PENDLETON AIRPT MOCLDY      54  51  90  NE6     29.91F
#ADAMS 3WNW     N/A         54  51  90  CALM    29.92F
#ATHENA         N/A         54  50  86  CALM    29.95S
#CAYUSE         N/A         55  50  83  W5      29.92R
#HELIX SCHOOL   N/A         53  50  89  N2      29.93S
#HELIX 3N       N/A         52  49  89  S12     29.89F
#HOLDMAN 5SE    N/A         54  51  90  E5      29.91F
#HOLDMAN 6E     N/A         53  50  89  E5      29.72F
#M-F FERNDALE   N/A         56  53  90  CALM    29.89F
#M-F GROVE ELEM N/A         56  50  80  CALM    29.88F
#M-FREEWATER 5SEN/A         56  51  83  CALM    29.92F
#PENDLETON DNTN N/A         54  51  90  CALM    29.92S
#PDT AQUATIC CTRN/A         54  52  93  CALM    29.93S
#PDT SUNRIDGE   N/A         54  51  90  CALM    29.93S
#PENDLETON 7NW  N/A         54  49  83  E5      32.30S
#PILOT ROCK 1S  N/A         61  45  56  S6      29.92S
#PILOT ROCK     N/A         56  48  74  W9      29.94S
#TUTUILLA       N/A         54  51  90  CALM    29.94S
#UMAPINE 2E     N/A         53  51  93  W1      29.92S
#WESTON SCHOOL  N/A         54  47  77  SW5     29.96S

$$

ORZ508-300010-
SOUTHERN FOOTHILLS OF THE BLUES

CITY            SKY/WX      TMP DP  RH  WIND    PRES   REMARKS
LEXINGTON       CLOUDY      61  45  56  SW16G29 29.95S
#AJAX           N/A         54  36  50  S12     30.08S
#CONDON SCHOOL  N/A         53  43  69  SW22G29 29.89F
#CONDON 5W      N/A         50  39  66  SW17G30 29.91S
#HEPPNER EOC    N/A         57  45  64  W13G25  29.87S
#LEXINGTON 2SE  N/A         61  47  60  CALM    29.89R
#MIKKALO        N/A         57  41  55  W16G26  30.01S
#OLEX 4N        N/A         59  46  62  SW22G33 29.88S
#RUGGS 5NE      N/A         54  42  64  SW14    30.11S
#RUGGS 2SW      N/A         55  42  61  W22G33  29.93F

$$

ORZ502-503-300010-
BLUE MOUNTAINS

CITY            SKY/WX      TMP DP  RH  WIND    PRES   REMARKS
MEACHAM         CLOUDY      48  43  83  MISG    29.95S
#BATTLE MTN DOT N/A         47  44  89  S3      N/A
#GREENHORN 9SW  N/A         50  48  93  CALM    26.18F
#HARDMAN 10S    N/A         45  42  89  SW3     30.11R
#HEPPNER 15SE   N/A         48  43  83  W5      29.98R
#LADD CYN SMT   N/A         45  42  89  SE16    N/A    WCI 38
#LADD CREEK ODOTN/A         47  42  83  S8      N/A
#LONG CREEK HS  N/A         50  48  93  CALM    N/A
#N POWDER DOT   N/A         47  41  79  SE12    N/A    WCI 42
#PIKES PEAK     N/A         48  47  96  W24G37  27.99S WCI 40
#TOLLGATE       N/A         40  39  96  SW5     29.82F
#TROY SCHOOL    N/A         52  48  86  S2      29.81R
#UKIAH          N/A         49  47  93  SW3     29.88S
#WESTON 4E      N/A         48  46  93  SE2     29.94S
$$

ORZ505-300010-
JOHN DAY BASIN

CITY            SKY/WX      TMP DP  RH  WIND    PRES   REMARKS
JOHN DAY        RAIN        51  48  89  N5      29.99F
#JOHN DAY KJDY  N/A         53  N/A N/A SW2     29.31F
#ANTELOPE 9ESE  N/A         59  44  57  SW5     N/A
#DAYVILLE SCHOOLN/A         54  49  83  N3      29.96R
#MITCHELL       N/A         53  46  77  W2      30.15S
#MITCHELL 8NW   N/A         50  40  68  SW2     29.90S
#MONUMENT HS    N/A         55  47  74  N5      29.94R
#MT. VERNON 5SE N/A         49  45  86  CALM    29.94F
#SPRAY SCHOOL   N/A         56  N/A N/A CALM    N/A
#WINLOCK        N/A         51  46  83  NW6     29.94F
$$

ORZ506-300010-
OCHOCO AND JOHN DAY HIGHLANDS

CITY            SKY/WX      TMP DP  RH  WIND    PRES   REMARKS
#HORSE RIDGE DO N/A         49  35  58  SW17    N/A    WCI 43
#PAULINA SCHOOL N/A         50  44  80  W9      N/A
#PINE MTN OBS   N/A         37  35  92  SW7     N/A
#PRAIRIE CITY   N/A         53  48  83  CALM    30.15F
#SENECA         N/A         49  N/A N/A NW9     N/A
#SENECA 9NW     N/A         47  44  89  CALM    30.00F
$$

ORZ049-300010-
GRANDE RONDE VALLEY

CITY            SKY/WX      TMP DP  RH  WIND    PRES   REMARKS
LA GRANDE       CLOUDY      48  41  77  S8      29.98S
#COVE           N/A         50  46  86  SE2     30.00F
#COVE SCHOOL    N/A         50  44  80  CALM    29.99S
#COVE 6NW       N/A         49  44  83  SE3     29.99S
#ELGIN 3N       N/A         48  41  77  S13     29.93F WCI 43
#ELGIN 1E       N/A         48  44  86  S3      N/A
#IMBLER SCHOOL  N/A         46  43  89  S10     29.94F
#ISLAND CITY 4N N/A         58  52  80  SW6     29.98S
#LADD CYN DOT   N/A         49  43  80  S23     N/A    WCI 42
#UNION 1S       N/A         50  43  77  E7      29.99F
$$

ORZ050-300010-
WALLOWA COUNTY

CITY            SKY/WX      TMP DP  RH  WIND    PRES   REMARKS
#IMNAHA SCHOOL  N/A         52  43  71  VRB14G2529.97F
#IMNAHA 10S     N/A         50  40  68  E1      29.96F
#JOSEPH 3N      N/A         48  41  77  NW6     29.99R
#JOSEPH 3W      N/A         46  44  93  CALM    29.81S
#LOSTINE        N/A         47  45  93  CALM    29.78S
#LOSTINE 3SE    N/A         47  46  96  N1      30.00S
#MT HOWARD 8000 N/A         32  31  96  SW7     29.98F
#PROMISE 1S     N/A         44  42  93  E7      30.06F
#WALLOWA SCHOOL N/A         48  46  93  CALM    29.93S



$$



USA.gov is the U.S. government's official web portal to all federal, state and local government web resources and services.